星链-31818 (STARLINK-31818 )

导读

STARLINK-31818是美国太空探索技术公司 SpaceX 星链星座的成员,于2024年5月13日发射升空。星链计划旨在构建全球卫星互联网,为地面提供高速低延迟网络服务,该卫星入轨后将补充完善星链星座的全球覆盖能力,提升服务容量与稳定性,支撑星座的通信服务运行。

基本信息
目录编号:
59741
目录名称:
STARLINK-31818
国际标识:
2024-090M
轨道中心:
EARTH
卫星名称:
星链-31818
卫星全名:
星链-31818 (STARLINK-31818 )
卫星状态:
在轨 (已飞行852 天)
发射日期:
2024-05-13 UTC
国别 :
美国 (US)
星等 :
--
该卫星已列入 空间交会检测服务 Space Conjunction Data Service (SCDS) ,当前飞行风险评估等级: 高风险
轨道信息
数据来源 国际轨道数据
星历时间: 2026-09-11T15:05:57+0800
18小时前
查看轨道信息
半长轴: 6861.174km
偏心率: 0.0001495
轨道倾角: 43.003°
近地点辐角 277.368°
升交点赤经 215.505°
平近点角 82.701°
近地点: 482.011km
远地点: 484.063km
周期: 94.266分钟
每日圈数: 15.275843
详细信息
固有亮度:
5
最大亮度:
1.5
卫星平台:
Starlink v2.0 mini
覆盖范围:
全球
运营商:
太空探索技术公司
运营商所在国:
美国
制造商(研发单位):
太空探索技术公司
制造商所在国:
美国
使用方式:
暂无
卫星简介
星链(Starlink)计划是由太空探索技术公司(SpaceX)提出的一个巨型低轨卫星互联网星座项目,计划在2019年至2024年间在太空搭建由约1.2万颗卫星组成的“星链”网络,其中1584颗将部署在地球上空550千米处的近地轨道,并从2020年开始工作。该卫星仍在工作。
2D轨道图
3D轨道图
轨道高度分析图
轨道倾角分析图
轨道综合分析图
查看轨道综合分析图
交会数据列表
事件ID 空间交会对象 最接近时刻(TCA) 交会距离 交会风险概率(CRP) 交会风险指数(CRI) 操作
CDM_260914-060804-376505-974122
HAWK-A (43765)
2026-09-14T
06:08:56+0000
0.332 km
远距离
4.06467E-4 高风险 0.87
CDM_260911-215205-974106-453023
2026-09-11T
21:52:13+0000
1.012 km
极远距离
2.531317E-5 中风险 0.63
CDM_260911-210505-974106-453023
2026-09-11T
21:05:06+0000
1.787 km
极远距离
3.783494E-6 低风险 0.47
CDM_260912-053105-974106-727221
2026-09-12T
05:31:59+0000
2.205 km
极远距离
2.07552E-6 低风险 0.41
CDM_260912-211405-974106-725622
OBJECT J (67256)
2026-09-12T
21:14:26+0000
2.724 km
极远距离
1.4159E-6 低风险 0.38
CDM_260913-182805-974106-268121
2026-09-13T
18:28:47+0000
2.780 km
极远距离
1.406029E-6 低风险 0.38
与全量物体交会距离演化趋势
与全量物体交会风险概率演化趋势